This demonstration page uses our WeatherBlox Daily Observations layout. Learn more.

Left ArrowRight Arrow

Hourly Observations for September 19, 2021

Temp ( °F °C ) Dew Point ( °F °C ) Humidity (%) Winds ( mph kmh ) Pressure ( in mb ) Visibility ( mi km ) Precip ( " mm )
12:51 am 00:51 Clear 73 22.8 60 15.6 64 64 N 5 7 29.85 1011 10 16 N/A
1:51 am 01:51 Clear 72 22.2 61 16.1 68 68 WNW 5 7 29.84 1010 10 16 N/A
2:51 am 02:51 Clear 71 21.7 61 16.1 71 71 NNW 8 13 29.83 1010 10 16 N/A
3:51 am 03:51 Clear 71 21.7 62 16.7 73 73 VRB 3 6 29.82 1010 10 16 N/A
4:51 am 04:51 Clear 68 20 61 16.1 78 78 SSW 3 6 29.84 1011 10 16 N/A
5:51 am 05:51 Clear 66 18.9 60 15.6 81 81 N N/A 29.87 1012 10 16 N/A
6:51 am 06:51 Sunny 69 20.6 61 16.1 76 76 N N/A 29.88 1012 10 16 N/A
7:51 am 07:51 Sunny 74 23.3 62 16.7 67 67 SSE 3 6 29.89 1012 10 16 N/A
8:51 am 08:51 Sunny 78 25.6 63 17.2 60 60 SSE 5 7 29.89 1012 10 16 N/A
9:51 am 09:51 Sunny 81 27.2 61 16.1 51 51 N N/A 29.87 1012 10 16 N/A
10:51 am 10:51 Sunny 87 30.6 62 16.7 43 43 S 3 6 29.84 1011 10 16 N/A
11:51 am 11:51 Sunny 90 32.2 60 15.6 37 37 N N/A 29.81 1009 10 16 N/A
12:51 pm 12:51 Sunny 92 33.3 60 15.6 34 34 SSW 6 9 29.78 1008 10 16 N/A
1:51 pm 13:51 Sunny 95 35 60 15.6 31 31 undefined N/A 29.74 1007 10 16 N/A
2:51 pm 14:51 Sunny 96 35.6 58 14.4 28 28 WNW 14 22 29.72 1006 10 16 N/A
3:51 pm 15:51 Sunny 95 35 58 14.4 29 29 W 16 26 29.70 1006 10 16 N/A
4:51 pm 16:51 Sunny 93 33.9 57 13.9 30 30 WNW 14 22 29.70 1006 10 16 N/A
5:51 pm 17:51 Sunny 88 31.1 57 13.9 35 35 WNW 15 24 29.72 1007 10 16 N/A
6:51 pm 18:51 Clear 87 30.6 59 15 39 39 NW 16 26 29.73 1007 10 16 N/A
7:51 pm 19:51 Clear 84 28.9 60 15.6 44 44 W 9 15 29.76 1008 10 16 N/A
8:51 pm 20:51 Clear 83 28.3 59 15 44 44 NW 9 15 29.77 1008 10 16 N/A
9:51 pm 21:51 Clear 79 26.1 59 15 50 50 WNW 9 15 29.78 1009 10 16 N/A
10:51 pm 22:51 Clear 75 23.9 59 15 58 58 NW 8 13 29.78 1008 10 16 N/A
11:51 pm 23:51 Clear 77 25 58 14.4 52 52 NNW 9 15 29.77 1008 10 16 N/A

Powered by AerisWeather